Simultaneous Nadir Overpasses (SNOs) Predictions

Prediction of SNOs between NPP and TERRA Satellite Orbit:

Table of predicted SNOs for the next 14.0 days since TLE Epoch: 11/14/2016
Index Date (NPP) Time (NPP) Lat,Lon (NPP) SZA (NPP ) Date (TERRA) Time (TERRA) Lat,Lon (TERRA) SZA (TERRA ) Distance(km) Time Diff (sec)
1 11/15/2016 18:23:00 -68.41, 82.93 92.96 11/15/2016 18:24:02 -68.42, 82.86 92.95 2.91 62
2 11/15/2016 19:13:44 68.29,-109.61 86.93 11/15/2016 19:13:29 68.30,-109.63 86.94 1.57 15
3 11/15/2016 20:04:17 -67.72, 58.42 93.63 11/15/2016 20:03:06 -67.82, 57.43 93.55 43.43 71
4 11/18/2016 10:39:55 -68.40,-161.29 92.33 11/18/2016 10:40:35 -68.39,-161.31 92.34 1.15 40
5 11/18/2016 11:30:39 68.28, 6.16 87.57 11/18/2016 11:30:02 68.27, 6.20 87.56 1.92 37
6 11/21/2016 02:06:20 69.13, 146.17 89.00 11/21/2016 02:07:29 69.03, 147.71 88.92 62.36 69
7 11/21/2016 02:56:50 -68.39, -45.51 91.73 11/21/2016 02:57:09 -68.38, -45.46 91.74 2.51 19
8 11/21/2016 03:47:33 68.23, 122.00 88.12 11/21/2016 03:46:37 68.20, 121.97 88.09 2.98 56
9 11/23/2016 18:23:03 68.49, -97.19 88.93 11/23/2016 18:24:14 68.47, -97.13 88.91 3.37 71
10 11/23/2016 19:13:44 -68.33, 70.33 91.23 11/23/2016 19:13:45 -68.33, 70.33 91.24 0.57 1
11 11/23/2016 20:04:26 68.12,-122.09 88.57 11/23/2016 20:03:13 68.15,-122.24 88.60 6.93 73
12 11/26/2016 10:39:56 68.44, 18.64 89.39 11/26/2016 10:40:50 68.43, 18.68 89.39 1.47 54
13 11/26/2016 11:30:37 -68.27,-173.83
